Starlink 11419

operational
NORAD ID: 62883 Int'l Des: 2025-024 Owner: SPXS Country: US Constellation: starlink
LEOCIRCULAR

About Starlink 11419

Description loading...

Live Position

Loading 3D Globe...

Upcoming Passes

Altitude History

Altitude vs Time

uPlot chart will show altitude changes over time

Two-Line Element Set

1 62883U 25024E 25305.10540665 .00361336 00000-0 26875-2 0 9994
2 62883 42.9981 236.5192 0001077 141.7406 218.3538 15.70940131 43242
Epoch: Nov 1, 2025 • Age: 32 hours

Current Status

Altitude 357.2 km
Velocity 7.70 km/s
Sub-Earth Point -15.57°S, 12.26°E
Launch Date Feb 4, 2025
Age 0.7 years
Type internet

Technical Details

Classification Payload
Mass 960.00 kg
Dry Mass 910.00 kg
Total Mass 960.00 kg
Length 0.30 m
Diameter 4.10 m
Span 29.00 m
Shape Box + pan
Manufacturer SPXS
Bus Type Starlink V2MD
Phase Status In Orbit
Owner/State SPXS/US

Large Constellations

Loading constellations...